YO8CLN-10 Weather Reports


time (UTC)temp
C
wind
direction
speed
KPH
gust
KPH
rain 1hr
cm
rain 24hr
cm
rain mn
cm
humidity
%
barometer
mb
20260507080239 22 67 0.0 8.0 0.00 0.00 0.00 47 1111.0
20260507075238 21 67 0.0 1.6 0.00 0.00 0.00 49 1111.0
20260507074238 21 0 1.6 3.2 0.00 0.00 0.00 51 1111.0
20260507073237 20 315 0.0 0.0 0.00 0.00 0.00 53 1111.0
20260507072236 20 315 0.0 0.0 0.00 0.00 0.00 55 1111.0
20260507071236 19 315 1.6 3.2 0.00 0.00 0.00 57 1111.0
20260507070235 18 0 3.2 3.2 0.00 0.00 0.00 58 1111.0
20260507065235 17 90 1.6 3.2 0.00 0.00 0.00 59 1111.0
20260507064234 16 90 0.0 0.0 0.00 0.00 0.00 61 1111.0
20260507063447 16 90 0.0 0.0 0.00 0.00 0.00 61 1111.0
20260507063234 16 90 0.0 0.0 0.00 0.00 0.00 61 1111.0
20260507062233 15 90 1.6 1.6 0.00 0.00 0.00 65 1111.0
20260507061232 13 180 0.0 0.0 0.00 0.00 0.00 67 1111.0
20260507060232 12 180 0.0 0.0 0.00 0.00 0.00 69 1111.0
20260507055231 11 180 0.0 0.0 0.00 0.00 0.00 70 1111.0
20260507054231 11 180 0.0 0.0 0.00 0.00 0.00 71 1111.0
20260507053230 10 180 0.0 0.0 0.00 0.00 0.00 71 1111.0
20260507052230 10 180 1.6 1.6 0.00 0.00 0.00 71 1111.0
20260507051229 10 180 0.0 0.0 0.00 0.00 0.00 72 1111.0
20260507050228 10 180 0.0 0.0 0.00 0.00 0.00 72 1111.0
20260507045228 9 180 0.0 0.0 0.00 0.00 0.00 73 1111.0
20260507044227 8 180 0.0 1.6 0.00 0.00 0.00 74 1111.0
20260507043227 8 180 3.2 3.2 0.00 0.00 0.00 74 1111.0
20260507042226 8 180 0.0 0.0 0.00 0.00 0.00 75 1111.0
20260507041226 7 180 0.0 0.0 0.00 0.00 0.00 78 1111.0
20260507040225 6 180 0.0 0.0 0.00 0.00 0.00 81 1111.0
20260507035224 3 180 0.0 0.0 0.00 0.00 0.00 82 1111.0
20260507034224 2 180 0.0 0.0 0.00 0.00 0.00 76 1111.0
20260507033223 2 180 0.0 0.0 0.00 0.00 0.00 75 1111.0
20260507032223 2 180 0.0 0.0 0.00 0.00 0.00 74 1111.0
20260507031222 2 180 0.0 0.0 0.00 0.00 0.00 74 1111.0
20260507030222 2 180 0.0 0.0 0.00 0.00 0.00 74 1111.0
20260507025221 2 180 0.0 0.0 0.00 0.00 0.00 74 1111.0
20260507024221 2 180 0.0 0.0 0.00 0.00 0.00 74 1111.0
20260507023220 2 180 3.2 3.2 0.00 0.00 0.00 74 1111.0
20260507022219 2 180 0.0 0.0 0.00 0.00 0.00 73 1111.0
20260507021219 2 180 0.0 0.0 0.00 0.00 0.00 73 1111.0
20260507020218 2 180 0.0 0.0 0.00 0.00 0.00 73 1111.0
20260507015218 2 180 0.0 0.0 0.00 0.00 0.00 73 1111.0
20260507014217 2 180 0.0 0.0 0.00 0.00 0.00 73 1111.0
20260507013216 2 180 0.0 1.6 0.00 0.00 0.00 72 1111.0
20260507012216 2 180 1.6 1.6 0.00 0.00 0.00 72 1111.0
20260507011215 2 180 0.0 0.0 0.00 0.00 0.00 72 1111.0
20260507010216 3 180 0.0 1.6 0.00 0.00 0.00 71 1111.0
20260507005214 3 180 0.0 0.0 0.00 0.00 0.00 71 1111.0
20260507004214 3 180 1.6 1.6 0.00 0.00 0.00 70 1111.0
20260507003213 3 180 0.0 1.6 0.00 0.00 0.00 70 1111.0
20260507002213 3 180 0.0 0.0 0.00 0.00 0.00 69 1111.0
20260507001212 3 180 0.0 0.0 0.00 0.00 0.00 69 1111.0
20260507000212 4 180 0.0 0.0 0.00 0.00 0.00 69 1111.0
20260506235211 4 180 0.0 1.6 0.00 0.00 0.00 69 1111.0
20260506234210 4 180 0.0 0.0 0.00 0.00 0.00 67 1111.0
20260506233210 4 180 0.0 0.0 0.00 0.00 0.00 67 1111.0
20260506232209 5 180 0.0 0.0 0.00 0.00 0.00 67 1111.0
20260506231209 5 180 0.0 1.6 0.00 0.00 0.00 66 1111.0
20260506230208 5 180 0.0 0.0 0.00 0.00 0.00 65 1111.0
20260506225207 5 180 0.0 1.6 0.00 0.00 0.00 64 1111.0
20260506224207 6 180 0.0 0.0 0.00 0.00 0.00 63 1111.0
20260506223206 6 180 0.0 0.0 0.00 0.00 0.00 62 1111.0
20260506222206 6 180 0.0 1.6 0.00 0.00 0.00 62 1111.0
20260506221205 7 180 0.0 0.0 0.00 0.00 0.00 62 1111.0
20260506220204 7 180 1.6 1.6 0.00 0.00 0.00 62 1111.0
20260506215204 7 180 0.0 0.0 0.00 0.00 0.00 61 1111.0
20260506214203 8 180 0.0 0.0 0.00 0.00 0.00 61 1111.0
20260506213203 8 180 0.0 0.0 0.00 0.00 0.00 62 1111.0
20260506212202 7 180 0.0 1.6 0.00 0.00 0.00 62 1111.0
20260506211202 7 202 0.0 0.0 0.00 0.00 0.00 61 1111.0
20260506210201 7 202 0.0 3.2 0.00 0.00 0.00 61 1111.0
20260506205201 7 202 0.0 6.4 0.00 0.00 0.00 61 1111.0
20260506204200 7 202 1.6 3.2 0.00 0.00 0.00 58 1111.0
20260506203159 7 202 0.0 0.0 0.00 0.00 0.00 56 1111.0
20260506202159 8 202 1.6 1.6 0.00 0.00 0.00 55 1111.0
20260506201158 8 202 0.0 1.6 0.00 0.00 0.00 54 1111.0
20260506200158 8 202 0.0 0.0 0.00 0.00 0.00 54 1111.0
20260506195157 9 202 0.0 0.0 0.00 0.00 0.00 54 1111.0
20260506194157 9 202 0.0 0.0 0.00 0.00 0.00 53 1111.0
20260506193156 9 202 0.0 0.0 0.00 0.00 0.00 53 1111.0
20260506192155 9 202 0.0 1.6 0.00 0.00 0.00 52 1111.0
20260506191155 9 202 0.0 0.0 0.00 0.00 0.00 50 1111.0
20260506190154 10 202 0.0 0.0 0.00 0.00 0.00 49 1111.0
20260506185154 10 202 0.0 0.0 0.00 0.00 0.00 47 1111.0
20260506184153 10 202 0.0 0.0 0.00 0.00 0.00 46 1111.0
20260506183153 11 202 0.0 0.0 0.00 0.00 0.00 43 1111.0
20260506182152 11 202 0.0 0.0 0.00 0.00 0.00 42 1111.0
20260506181151 12 202 0.0 0.0 0.00 0.00 0.00 41 1111.0
20260506180151 12 202 0.0 0.0 0.00 0.00 0.00 39 1111.0
20260506175150 13 202 0.0 0.0 0.00 0.00 0.00 38 1111.0
20260506174150 14 202 0.0 0.0 0.00 0.00 0.00 36 1111.0
20260506173149 15 202 0.0 0.0 0.00 0.00 0.00 34 1111.0
20260506172149 16 202 0.0 0.0 0.00 0.00 0.00 33 1111.0
20260506171148 17 202 0.0 0.0 0.00 0.00 0.00 32 1111.0
20260506170147 18 202 0.0 0.0 0.00 0.00 0.00 30 1111.0
20260506165147 20 180 0.0 0.0 0.00 0.00 0.00 26 1111.0
20260506164146 21 202 3.2 4.8 0.00 0.00 0.00 25 1111.0
20260506163146 22 202 0.0 6.4 0.00 0.00 0.00 24 1111.0
20260506162145 23 202 9.7 9.7 0.00 0.00 0.00 23 1111.0
20260506161145 23 202 9.7 9.7 0.00 0.00 0.00 23 1111.0
20260506160144 25 180 6.4 6.4 0.00 0.00 0.00 24 1111.0
20260506155143 25 202 6.4 6.4 0.00 0.00 0.00 24 1111.0
20260506154143 25 180 4.8 4.8 0.00 0.00 0.00 24 1111.0
20260506153142 25 157 1.6 6.4 0.00 0.00 0.00 25 1111.0
20260506152142 25 157 4.8 11.3 0.00 0.00 0.00 26 1111.0
20260506151141 26 180 1.6 11.3 0.00 0.00 0.00 25 1111.0
20260506150141 26 157 3.2 9.7 0.00 0.00 0.00 24 1111.0
20260506145140 25 202 4.8 9.7 0.00 0.00 0.00 26 1111.0
20260506144139 25 202 12.9 32.2 0.00 0.00 0.00 27 1111.0
20260506143139 24 22 0.0 9.7 0.00 0.00 0.00 27 1111.0
20260506142138 24 180 6.4 6.4 0.00 0.00 0.00 28 1111.0
20260506141138 23 270 4.8 12.9 0.00 0.00 0.00 29 1111.0
20260506140539 23 315 12.9 12.9 0.00 0.00 0.00 30 1111.0
20260506140137 23 270 3.2 3.2 0.00 0.00 0.00 31 1111.0
20260506135136 22 157 3.2 3.2 0.00 0.00 0.00 31 1111.0
20260506134136 21 202 0.0 4.8 0.00 0.00 0.00 31 1111.0
20260506133135 22 315 3.2 6.4 0.00 0.00 0.00 31 1111.0
20260506132135 22 337 0.0 12.9 0.00 0.00 0.00 31 1111.0
20260506131134 22 270 1.6 1.6 0.00 0.00 0.00 31 1111.0
20260506130134 22 247 3.2 4.8 0.00 0.00 0.00 31 1111.0
20260506125133 22 292 1.6 1.6 0.00 0.00 0.00 31 1111.0
20260506124132 22 315 8.0 8.0 0.00 0.00 0.00 33 1111.0
20260506123132 22 270 0.0 0.0 0.00 0.00 0.00 32 1111.0
20260506122131 22 270 0.0 0.0 0.00 0.00 0.00 31 1111.0
20260506121131 23 337 4.8 4.8 0.00 0.00 0.00 31 1111.0
20260506120130 23 270 0.0 8.0 0.00 0.00 0.00 31 1111.0
20260506115130 23 292 3.2 8.0 0.00 0.00 0.00 33 1111.0
20260506114129 22 315 0.0 3.2 0.00 0.00 0.00 32 1111.0
20260506113128 23 270 9.7 9.7 0.00 0.00 0.00 31 1111.0
20260506112128 24 270 6.4 6.4 0.00 0.00 0.00 31 1111.0
20260506111127 25 315 6.4 6.4 0.00 0.00 0.00 32 1111.0
20260506110127 25 292 0.0 1.6 0.00 0.00 0.00 32 1111.0
20260506105126 25 0 1.6 1.6 0.00 0.00 0.00 32 1111.0
20260506104126 23 112 0.0 0.0 0.00 0.00 0.00 33 1111.0
20260506103125 23 315 3.2 3.2 0.00 0.00 0.00 33 1111.0
20260506102124 23 22 0.0 1.6 0.00 0.00 0.00 32 1111.0
20260506101124 25 292 4.8 4.8 0.00 0.00 0.00 31 1111.0
20260506100123 25 45 0.0 4.8 0.00 0.00 0.00 31 1111.0
20260506095123 25 337 0.0 1.6 0.00 0.00 0.00 30 1111.0
20260506094122 25 337 8.0 8.0 0.00 0.00 0.00 31 1111.0
20260506093122 25 112 1.6 6.4 0.00 0.00 0.00 33 1111.0
20260506092121 25 22 1.6 6.4 0.00 0.00 0.00 35 1111.0
20260506091121 24 315 0.0 6.4 0.00 0.00 0.00 35 1111.0
20260506090120 24 67 3.2 3.2 0.00 0.00 0.00 34 1111.0
20260506085119 24 315 1.6 1.6 0.00 0.00 0.00 38 1111.0
20260506084119 23 67 0.0 3.2 0.00 0.00 0.00 37 1111.0
20260506083118 23 337 0.0 3.2 0.00 0.00 0.00 38 1111.0
20260506082118 22 337 0.0 3.2 0.00 0.00 0.00 38 1111.0
20260506081117 22 45 3.2 3.2 0.00 0.00 0.00 42 1111.0